This is the latest recevied weather packets stored in our database for station/object WS4FSC-7. If no packets are shown the sender has not sent any weather packets the latest 10 day(s).
| Time | Temp. | Humidity | Pressure | Rain* | Wind** | Luminosity | Snow |
|---|---|---|---|---|---|---|---|
| 1788295130 | 28.89° C | 82% | 1013 hPa | - | - | 180 W/m² | - |
| 1788294951 | 28.89° C | 83% | 1013 hPa | - | - | 175 W/m² | - |
| 1788294591 | 28.89° C | 83% | 1013 hPa | - | - | 180 W/m² | - |
| 1788294411 | 28.89° C | 82% | 1013 hPa | - | - | 181 W/m² | - |
| 1788294232 | 28.89° C | 84% | 1013 hPa | - | - | 182 W/m² | - |
| 1788293871 | 28.33° C | 84% | 1013 hPa | - | - | 178 W/m² | - |
| 1788293511 | 28.33° C | 84% | 1013 hPa | - | - | 171 W/m² | - |
| 1788293154 | 28.89° C | 84% | 1013 hPa | - | - | 161 W/m² | - |
| 1788292971 | 28.89° C | 83% | 1013 hPa | - | - | 157 W/m² | - |
| 1788292611 | 28.89° C | 80% | 1013 hPa | - | - | 147 W/m² | - |
| 1788292430 | 28.89° C | 80% | 1013 hPa | - | - | 142 W/m² | - |
| 1788292250 | 28.89° C | 79% | 1013 hPa | - | - | 137 W/m² | - |
| 1788292071 | 28.89° C | 78% | 1013 hPa | - | - | 133 W/m² | - |
| 1788291890 | 28.89° C | 78% | 1013 hPa | - | - | 130 W/m² | - |
| 1788291710 | 28.89° C | 78% | 1013 hPa | - | - | 128 W/m² | - |
| 1788291352 | 28.89° C | 80% | 1013 hPa | - | - | 123 W/m² | - |
| 1788291171 | 28.33° C | 81% | 1014 hPa | - | - | 120 W/m² | - |
| 1788290992 | 28.33° C | 81% | 1014 hPa | - | - | 116 W/m² | - |
| 1788290811 | 28.33° C | 84% | 1014 hPa | - | - | 110 W/m² | - |
| 1788290632 | 28.33° C | 86% | 1014 hPa | - | - | 109 W/m² | - |
| 1788290451 | 28.33° C | 85% | 1014 hPa | - | - | 108 W/m² | - |
| 1788290091 | 28.33° C | 86% | 1014 hPa | - | - | 110 W/m² | - |
| 1788289731 | 28.33° C | 86% | 1014 hPa | - | - | 115 W/m² | - |
| 1788289551 | 27.78° C | 87% | 1014 hPa | - | - | 121 W/m² | - |
| 1788289370 | 27.78° C | 86% | 1014 hPa | - | - | 130 W/m² | - |
* Rain since midnight (hover to see other rain measurements)
** Current wind speed in m/s (hover to see current wind gust speed)